CST,Max TemperatureF,Mean TemperatureF,Min TemperatureF,Max Dew PointF,MeanDew PointF,Min DewpointF,Max Humidity, Mean Humidity, Min Humidity, Max Sea Level PressureIn, Mean Sea Level PressureIn, Min Sea Level PressureIn, Max VisibilityMiles, Mean VisibilityMiles, Min VisibilityMiles, Max Wind SpeedMPH, Mean Wind SpeedMPH, Max Gust SpeedMPH,PrecipitationIn, CloudCover, Events, WindDirDegrees
2013-1-1,19,4,-11,14,-1,-18,86,74,65,30.27,30.19,30.05,10,10,5,13,4,,0.00,5,Snow,202
2013-1-2,28,20,12,23,13,5,86,82,73,30.11,30.01,29.95,10,5,0,17,8,,0.00,7,Snow,210
2013-1-3,17,12,8,10,7,1,86,76,63,30.29,30.22,30.11,10,8,2,21,15,24,0.00,4,Snow,263
2013-1-4,30,22,14,19,13,9,86,73,59,30.15,30.11,30.06,10,10,10,16,9,,0.00,0,,210
2013-1-5,26,19,12,18,12,5,86,76,64,30.11,29.98,29.87,10,9,5,17,9,25,0.00,0,,220
2013-1-6,26,16,8,18,9,3,86,75,67,30.24,30.16,30.04,10,10,5,20,9,22,0.00,1,,239
2013-1-7,35,28,19,27,22,16,86,75,64,30.05,29.96,29.91,10,9,2,31,17,39,0.00,0,,198
2013-1-8,35,24,14,30,21,10,87,81,75,29.99,29.89,29.78,10,8,1,18,7,24,0.00,1,,162
2013-1-9,37,32,26,28,24,19,81,73,60,30.38,30.23,29.97,10,10,10,17,11,23,0.00,1,Snow,222
2013-1-10,39,36,32,32,27,23,87,70,52,30.32,30.08,29.73,10,8,1,18,15,24,0.11,4,Rain,144
2013-1-11,44,40,35,41,35,32,93,87,81,29.73,29.53,29.40,7,3,0,17,10,22,0.00,8,Fog,158
2013-1-12,39,24,8,36,11,0,93,71,58,30.08,29.88,29.44,10,9,2,30,19,37,0.00,6,Snow,266
2013-1-13,14,10,5,5,0,-4,78,69,62,30.26,30.13,30.04,10,10,5,16,11,18,0.00,3,Snow,282
2013-1-14,23,14,5,10,7,0,79,72,59,30.40,30.34,30.26,10,10,3,12,6,23,0.00,2,Snow,233
2013-1-15,33,24,14,21,15,9,79,67,55,30.30,30.15,29.90,10,10,10,20,12,28,0.00,0,,196
2013-1-16,39,26,12,34,23,5,100,79,68,30.23,29.89,29.73,10,9,2,21,16,28,0.01,5,Rain-Snow,267
2013-1-17,24,14,5,18,8,0,86,75,62,30.41,30.36,30.24,10,10,10,15,8,20,0.00,4,,271
2013-1-18,42,30,19,32,27,14,93,82,65,30.26,29.91,29.77,10,10,10,22,12,28,0.00,1,,200
2013-1-19,37,20,3,32,21,-4,93,82,66,30.24,29.89,29.72,10,10,5,38,13,50,0.00,4,Snow,265
2013-1-20,12,6,0,3,-2,-8,85,73,57,30.40,30.32,30.26,,,,22,15,28,0.00,5,,295
2013-1-21,0,-4,-7,-8,-12,-17,78,70,60,30.35,30.30,30.28,10,10,7,23,17,30,0.00,2,,288
2013-1-22,12,0,-7,3,-8,-15,84,69,61,30.38,30.32,30.22,10,10,10,10,6,,0.00,3,,268
2013-1-23,17,8,0,12,3,-13,92,74,55,30.56,30.27,30.13,10,8,2,30,10,36,0.00,4,Snow,285
2013-1-24,17,6,-4,5,-7,-15,67,57,45,30.63,30.45,30.16,10,10,3,18,10,25,0.00,2,Snow,112
2013-1-25,21,11,1,14,5,-4,80,72,53,30.28,30.11,29.98,10,10,3,30,15,41,0.00,3,Snow,269
2013-1-26,26,13,0,12,3,-6,85,66,50,30.33,30.23,30.10,10,10,10,17,6,24,0.00,3,,135
2013-1-27,32,29,26,30,25,12,93,79,55,30.11,29.92,29.79,10,6,2,16,10,22,0.05,8,Snow,137
2013-1-28,32,32,32,32,31,30,100,96,93,29.91,29.81,29.62,5,2,0,7,1,,0.14,8,Fog-Snow-Thunderstorm,110
2013-1-29,33,32,30,32,31,25,100,95,80,29.71,29.62,29.53,10,6,0,23,9,31,0.00,8,Fog,327
2013-1-30,30,18,5,27,13,1,86,81,73,29.79,29.68,29.60,10,8,2,26,20,32,0.00,8,Snow,314
2013-1-31,5,-1,-7,0,-8,-15,85,76,71,30.29,30.04,29.80,10,6,2,29,21,34,0.00,6,,290